Вернуться в каталог

STARLINK-5337

АктивенСвязьVLEO
NORAD 55284·PAYLOAD·🇺🇸 United States

Запущен Jan 19, 2023 с Vandenberg Space Force Base

Loading…

Ближайшие Пролёты (ближайшие 24 часа)

TLE

СвежийSource: CelesTrak SupGP

Эпоха: Sep 15, 2026, 01:33 UTC

1 55284C 23010R   26258.06506944  .00019764  00000+0  16558-2 0  2588
2 55284  69.9996 286.7990 0003732 266.5997 204.8722 14.98331180    18

Отслеживайте STARLINK-5337 в реальном времени с AllMySat

Download on the App Store